Flag for Philippines Weather past 2 weeks in Makati, Philippines

Now
79 °F

Passing clouds.


Feels Like: 83 °F
Forecast: 80 / 91 °F
Wind: No wind

Location: National Airport

Current Time: Aug 28, 2015 at 6:05:01 AM

Latest Report: Aug 28, 2015 at 5:00 AM


Visibility: 6 mi

Pressure: 29.80 "Hg

Humidity: 94%

Dew point: 77 °F

Location of MakatiLocation

Historic Weather in Makati — Graph

°F

Makati temperature yesterday

Maximum temperature yesterday: 88 °F (at 1:00 PM)
Minimum temperature yesterday: 77 °F (at 10:00 PM)
Average temperature yesterday: 84 °F

Past Weeks' High & Low Weather Summary

 TemperatureHumidityPressure
High91 °F (Aug 13, 2:00 PM)100% (Aug 13, 4:00 AM)29.92 "Hg (Aug 13, 4:00 AM)
Low75 °F (Aug 21, 2:00 AM)52% (Aug 14, 1:00 PM)29.56 "Hg (Aug 21, 11:00 AM)
Average83 °F85%29.77 "Hg
* Reported Aug 13 4:00 AM — Aug 28 4:00 AM, Makati, Weather by CustomWeather, © 2015

Note: Actual official high and low records may vary slightly from our data, if they occured in-between our weather recording intervals... More about our weather records

Advertising

Makati weather history for previous 24 hours

 ConditionsComfort  
Time TempWeatherWind HumidityBarometerVisibility
4:00 AM
Fri, Aug 28
79 °FPassing clouds.No wind94%29.80 "Hg6 mi
3:00 AM79 °FPassing clouds.No wind94%29.80 "Hg6 mi
2:00 AM79 °FPassing clouds.2 mph89%29.83 "HgN/A
1:00 AM81 °FPassing clouds.5 mph84%29.86 "HgN/A
12:00 AM79 °FPassing clouds.2 mph89%29.86 "HgN/A
11:00 PM
Thu, Aug 27
79 °FPassing clouds.7 mph89%29.89 "HgN/A
10:00 PM77 °FLight rain. Mostly cloudy.5 mph83%29.89 "Hg6 mi
9:00 PM84 °FPartly cloudy.1 mph84%29.86 "HgN/A
8:00 PM84 °FPassing clouds.5 mph84%29.83 "HgN/A
7:00 PM84 °FPartly cloudy.6 mph84%29.83 "HgN/A
6:00 PM84 °FCloudy.10 mph84%29.83 "Hg6 mi
5:00 PM86 °FBroken clouds.12 mph84%29.80 "Hg6 mi
4:00 PM86 °FSprinkles. Broken clouds.10 mph79%29.80 "Hg6 mi
3:00 PM86 °FBroken clouds.12 mph75%29.80 "Hg6 mi
2:00 PM88 °FBroken clouds.13 mph70%29.80 "HgN/A
1:00 PM88 °FScattered clouds.10 mph70%29.83 "HgN/A
12:00 PM86 °FScattered clouds.10 mph84%29.86 "HgN/A
11:00 AM86 °FScattered clouds.10 mph79%29.89 "HgN/A
10:00 AM86 °FScattered clouds.7 mph75%29.89 "HgN/A
9:00 AM86 °FScattered clouds.7 mph75%29.89 "HgN/A
8:00 AM86 °FPartly sunny.2 mph70%29.89 "HgN/A
7:00 AM84 °FScattered clouds.No wind74%29.86 "HgN/A
6:00 AM81 °FScattered clouds.2 mph79%29.86 "HgN/A
Weather by CustomWeather, © 2015

See weather overviewHow to use our weather pages